Fryeburg, ME

7:51 PM EDT on May 26, 2017 (GMT -0400)
Eastern Slopes Regional

Weather History for KIZG - November, 2012

Change the Weather History Date:

Thursday, November 8, 2012

  Actual Average Record
Temperature  
Mean Temperature 34 °F -  
Max Temperature 39 °F 45 °F 68 °F (2011)
Min Temperature 30 °F 26 °F 17 °F (1999)
Degree Days  
Heating Degree Days 30    
Moisture  
Dew Point 31 °F    
Average Humidity 87    
Maximum Humidity 93    
Minimum Humidity 67    
Precipitation  
Precipitation 0.71 in - - ()
Sea Level Pressure  
Sea Level Pressure 29.84 in    
Wind  
Wind Speed 11 mph (North)    
Max Wind Speed 15 mph    
Max Gust Speed 23 mph    
Visibility 5 miles    
Events Rain , Snow    
Averages and records for this station are not official NWS values.
T = Trace of Precipitation, MM = Missing Value Source: NWS Daily Summary

Daily Weather History Graph

Daily Weather History Graph

Search for Another Location

Airport or City:

Trip Planner

Search our weather history database for the weather conditions in past years. The results will help you decide how hot, cold, wet, or windy it might be!

Date:

Astronomy

Nov. 08, 2012 Rise Set
Actual Time 6:30 AM EST 4:24 PM EST
Civil Twilight 5:59 AM EST 4:55 PM EST
Nautical Twilight 5:24 AM EST 5:29 PM EST
Astronomical Twilight 4:51 AM EST 6:03 PM EST
Moon 12:10 AM EST (11/8) 1:14 PM EST (11/8)
Length of Visible Light 10h 55m
Length of Day
9h 54m
Waning Crescent, 33% of the Moon is Illuminated
Nov 8
Waning Crescent
Nov 13
New
Nov 20
First Quarter
Nov 28
Full
Dec 6
Last Quarter

Hourly Weather History & Observations

Time (EST) Temp. Windchill Dew Point Humidity Pressure Visibility Wind Dir Wind Speed Gust Speed Precip Events Conditions
12:25 AM 33.8 °F 24.3 °F 24.8 °F 70% 29.93 in 6.0 mi NNE 13.8 mph 21.9 mph 0.00 in Snow Light Snow
12:54 AM 32.0 °F 23.0 °F 26.1 °F 79% 29.94 in 4.0 mi NNE 11.5 mph 21.9 mph 0.00 in Snow Light Snow
1:12 AM 32.0 °F 22.5 °F 26.6 °F 80% 29.91 in 4.0 mi North 12.7 mph 19.6 mph 0.00 in Snow Light Snow
1:40 AM 30.2 °F 21.3 °F 26.6 °F 86% 29.91 in 2.5 mi North 10.4 mph 20.7 mph 0.00 in Snow Light Snow
1:47 AM 30.2 °F 21.3 °F 28.4 °F 93% 29.90 in 3.0 mi North 10.4 mph 18.4 mph 0.00 in Snow Light Snow
1:54 AM 30.9 °F 21.7 °F 28.0 °F 89% 29.92 in 3.0 mi NNE 11.5 mph 18.4 mph 0.00 in Snow Light Snow
2:07 AM 30.2 °F 21.3 °F 28.4 °F 93% 29.90 in 2.0 mi North 10.4 mph 19.6 mph 0.00 in Snow Light Snow
2:20 AM 30.2 °F 19.3 °F 28.4 °F 93% 29.89 in 1.5 mi North 15.0 mph 19.6 mph 0.00 in Snow Light Snow
2:25 AM 30.2 °F 22.6 °F 28.4 °F 93% 29.89 in 1.2 mi North 8.1 mph 19.6 mph 0.00 in Snow Light Snow
2:35 AM 30.2 °F 20.2 °F 28.4 °F 93% 29.88 in 1.2 mi North 12.7 mph 19.6 mph 0.01 in Snow Light Snow
2:45 AM 30.2 °F 19.8 °F 28.4 °F 93% 29.88 in 1.2 mi North 13.8 mph 19.6 mph 0.01 in Snow Light Snow
2:54 AM 30.9 °F 21.7 °F 28.9 °F 92% 29.89 in 1.5 mi North 11.5 mph 20.7 mph 0.01 in Snow Light Snow
3:07 AM 32.0 °F 24.2 °F 28.4 °F 87% 29.87 in 2.0 mi North 9.2 mph 18.4 mph 0.01 in Snow Light Snow
3:14 AM 32.0 °F 24.8 °F 28.4 °F 87% 29.87 in 2.0 mi NNE 8.1 mph - 0.01 in Snow Light Snow
3:22 AM 32.0 °F 24.2 °F 28.4 °F 87% 29.87 in 1.2 mi North 9.2 mph - 0.02 in Snow Light Snow
3:33 AM 32.0 °F 24.2 °F 28.4 °F 87% 29.87 in 1.0 mi North 9.2 mph - 0.03 in Snow Light Snow
3:45 AM 32.0 °F 23.0 °F 30.2 °F 93% 29.86 in 1.0 mi North 11.5 mph 17.3 mph 0.04 in Snow Light Snow
3:54 AM 32.0 °F 24.2 °F 30.0 °F 92% 29.88 in 1.2 mi North 9.2 mph 18.4 mph 0.04 in Snow Light Snow
4:01 AM 32.0 °F 23.0 °F 30.2 °F 93% 29.86 in 1.5 mi North 11.5 mph 20.7 mph 0.00 in Snow Light Snow
4:06 AM 32.0 °F 22.5 °F 30.2 °F 93% 29.86 in 2.0 mi North 12.7 mph 20.7 mph 0.01 in Snow Light Snow
4:54 AM 33.1 °F 23.9 °F 30.9 °F 92% 29.86 in 1.8 mi North 12.7 mph 21.9 mph 0.01 in Snow Light Snow
5:39 AM 33.8 °F 25.8 °F 30.2 °F 87% 29.84 in 2.5 mi North 10.4 mph - 0.02 in Snow Light Snow
5:54 AM 33.1 °F 23.4 °F 30.9 °F 92% 29.85 in 3.0 mi North 13.8 mph 23.0 mph 0.02 in Snow Light Snow
6:54 AM 34.0 °F 24.6 °F 32.0 °F 92% 29.85 in 5.0 mi North 13.8 mph 20.7 mph 0.00 in Snow Light Snow
7:54 AM 34.0 °F 25.0 °F 32.0 °F 92% 29.84 in 6.0 mi North 12.7 mph 19.6 mph 0.01 in Snow Light Snow
8:41 AM 35.6 °F 27.5 °F 32.0 °F 87% 29.82 in 2.5 mi North 11.5 mph 20.7 mph 0.02 in Snow Light Snow
8:54 AM 35.1 °F 27.4 °F 33.1 °F 92% 29.84 in 5.0 mi North 10.4 mph 21.9 mph 0.03 in Snow Light Snow
9:54 AM 36.0 °F 28.0 °F 34.0 °F 93% 29.83 in 10.0 mi North 11.5 mph 17.3 mph 0.01 in Rain Light Rain
10:19 AM 35.6 °F 28.6 °F 33.8 °F 93% 29.80 in 10.0 mi North 9.2 mph - 0.00 in Rain Light Rain
10:54 AM 37.0 °F 31.0 °F 34.0 °F 89% 29.81 in 10.0 mi North 8.1 mph 18.4 mph 0.01 in   Overcast
11:54 AM 37.0 °F 29.8 °F 34.0 °F 89% 29.80 in 9.0 mi North 10.4 mph - 0.05 in Rain Light Rain
12:54 PM 37.0 °F 32.4 °F 34.0 °F 89% 29.78 in 8.0 mi North 5.8 mph - 0.04 in Rain Rain
1:54 PM 36.0 °F 29.6 °F 34.0 °F 93% 29.76 in 2.5 mi North 8.1 mph - 0.12 in Rain Rain
2:06 PM 37.4 °F 33.8 °F 35.6 °F 93% 29.76 in 6.0 mi Variable 4.6 mph - 0.02 in Rain Light Rain
2:37 PM 35.6 °F 32.8 °F 33.8 °F 93% 29.76 in 2.5 mi North 3.5 mph - 0.14 in Rain Heavy Rain
2:54 PM 36.0 °F 31.1 °F 34.0 °F 93% 29.78 in 3.0 mi North 5.8 mph - 0.22 in Rain Rain
3:42 PM 37.4 °F 32.1 °F 33.8 °F 87% 29.76 in 7.0 mi North 6.9 mph - 0.07 in Rain Light Rain
3:54 PM 37.0 °F 32.4 °F 34.0 °F 89% 29.78 in 8.0 mi NNW 5.8 mph - 0.08 in Rain Light Rain
4:52 PM 37.4 °F - 33.8 °F 87% 29.77 in 8.0 mi Calm Calm - 0.01 in Rain Rain
4:54 PM 37.0 °F - 34.0 °F 89% 29.79 in 8.0 mi Calm Calm - 0.01 in Rain Light Rain
5:21 PM 37.4 °F 32.1 °F 33.8 °F 87% 29.78 in 10.0 mi NNW 6.9 mph - 0.01 in Rain Rain
5:54 PM 36.0 °F 29.6 °F 33.1 °F 89% 29.81 in 10.0 mi NNW 8.1 mph - 0.04 in Rain Light Rain
6:54 PM 37.0 °F 29.8 °F 32.0 °F 82% 29.80 in 10.0 mi North 10.4 mph - 0.00 in   Overcast
7:54 PM 37.9 °F 30.9 °F 30.9 °F 76% 29.80 in 10.0 mi North 10.4 mph 18.4 mph 0.00 in   Overcast
8:54 PM 39.0 °F 32.3 °F 30.9 °F 73% 29.80 in 10.0 mi North 10.4 mph - N/A   Overcast
9:54 PM 39.0 °F 31.4 °F 28.9 °F 67% 29.79 in 10.0 mi North 12.7 mph 18.4 mph N/A   Overcast
10:54 PM 39.0 °F 32.8 °F 28.9 °F 67% 29.78 in 10.0 mi North 9.2 mph 20.7 mph 0.01 in   Overcast
11:54 PM 39.0 °F 32.3 °F 28.9 °F 67% 29.78 in 10.0 mi North 10.4 mph 19.6 mph N/A   Overcast